ロニオス彗星

182P/LONEOS (2012)

English version
Home page
Updated on April 18, 2012

---------------------------------------------------------------------

・ プロフィール

・ 軌道要素

Epoch 2012 Mar. 14.0 TT = JDT 2456000.5
T 2012 Mar. 5.44580 TT                                  MPC
q   1.0085297            (2000.0)            P               Q
n   0.19338825     Peri.   53.76174     -0.56585554     -0.77993813
a   2.9615290      Node    72.86830     +0.63780101     -0.61959123
e   0.6594564      Incl.   16.24933     +0.52251066     -0.08833580
P   5.10
From 185 observations 2001 Oct. 26-2011 Nov. 20, mean residual 0".5.

・ 光度変化

        H = 19.0  G = 0.15

---------------------------------------------------------------------

軌道要素はM.P.E.C. 2011-W48に掲載されたものです。
光度グラフはComet for Windowsで作成したものです。

---------------------------------------------------------------------

Copyright(C) Seiichi Yoshida (comet@aerith.net). All rights reserved.